www.pogodaiklimat.ru

Погода и климат >> Архив погоды >> Россия >> Хабаровский край >> Горин


ПОГОДА в Горине

  • Прогноз погоды в Горине
  • Монитор погоды в Горине

АРХИВ ПОГОДЫ в Горине

Время (UTC), дата Ветер
(напр.,м/с)
 
Видим.   Явления Облачность Т
(С)
Тd
(С)
f
(%)
Тe
(С)
Тes
(С)
Комфортность P
(гПа)
Po
(гПа)
Тmin
(С)
Tmax
(С)
R
(мм)
R24
(мм)
S
(см)
03 16.05 С 2 50 км 10/0
[Ac und]
+16.1 +10.6 70 +16 +21 1004.7 993.9
06 16.05 СЗ 2 50 км 10/0
[Ac und]
+16.3 +10.4 68 +16 +19 1002.7 991.9
09 16.05 СЗ 1 50 км 10/0
[Ac und]
+13.3 +9.1 76 +14 +14 1001.7 990.8 +20.5
12 16.05 З 1 10 км гроза, ливневой дождь 10/10 600 м
[Cb cap]
+9.8 +8.4 91 +9 +9 1004.9 993.8
15 16.05 штиль 0 50 км в посл. час ливневой дождь {гроза} 10/10 600 м
[Cb cap]
+9.0 +8.6 97 +8 +8 1007.3 996.2
18 16.05 штиль 0 50 км {гроза, ливн. осадки} 10/0
[Ac As Ci sp]
+6.8 +6.3 97 +6 +6 1006.9 995.7
21 16.05 штиль 0 50 км 3/0
[Ac trans]
+9.4 +8.9 97 +8 +11 1007.3 996.2 +6.6 3
00 17.05 Ю 2 50 км 10/8 600 м
[Cb cap As op]
+13.4 +9.7 78 +13 +13 1006.8 995.8
03 17.05 Ю 1 10 км слаб. ливневой дождь 10/10 600 м
[Cb cap]
+11.2 +10.7 97 +11 +11 1006.5 995.5
06 17.05 В 1 50 км {ливн. осадки} 4/3 1000 м
[Cu hum Ci fib]
+12.8 +8.4 75 +13 +21 1004.1 993.2
09 17.05 СЗ 2 50 км 10/10 600 м
[Cb cap]
+13.1 +8.8 75 +12 +12 1005.8 994.9 +15.8 17
12 17.05 штиль 0 50 км {гроза, ливн. осадки} ясно +7.1 +6.7 97 +6 +6 1006.6 995.4
15 17.05 штиль 0 50 км 3/0
[Ci fib]
+3.7 +3.2 97 +2 +2 1007.5 996.2
18 17.05 штиль 0 500 м туман ясно +5.8 +5.4 97 +5 +5 1007.3 996.0
21 17.05 С 1 500 м туман ?/? +6.1 +5.6 97 +5 +5 1005.6 994.3 +3.5 3
00 18.05 ЮВ 1 10 км слаб. ливневой дождь {туман} 10/10 600 м
[Cb cap]
+8.3 +7.9 97 +7 +7 1005.0 993.9
03 18.05 ЮЗ 1 50 км {ливн. осадки} 10/5 1000 м
[Sc diur, vesp Ac und]
+15.7 +12.9 83 +16 +19 1003.0 992.2
06 18.05 ЮЗ 2 50 км {ливн. осадки} 10/3 1000 м
[Sc Ac As]
+18.0 +7.9 52 +19 +21 1002.0 991.3
09 18.05 Ю 1 50 км 10/10 1000 м
[Sc]
+15.0 +9.1 68 +16 +16 1001.8 990.9 +18.6 4
12 18.05 штиль 0 50 км 10/0
[Ac und]
+10.9 +7.0 77 +10 +10 1002.9 991.9
15 18.05 штиль 0 50 км 8/0
[Ac trans Ci sp]
+8.0 +6.3 89 +7 +7 1003.5 992.4
18 18.05 ЮЗ 1 50 км 3/0
[Ci sp]
+7.1 +2.4 72 +6 +6 1004.3 993.1
21 18.05 ЮЗ 1 50 км 4/0
[Ci fib]
+9.9 +4.0 67 +10 +12 1006.0 995.0 +4.1
00 19.05 З 3 50 км 10/0
[Cs]
+17.7 +0.3 31 +18 +25 1006.1 995.3
03 19.05 З 2 50 км 10/0
[Cs]
+20.1 +1.2 28 +21 +34 комфорт 1005.7 995.0
06 19.05 ЮВ 1 50 км 10/0
[As trans]
+19.0 +7.9 48 +21 +25 комфорт 1005.7 995.0
09 19.05 Ю 1 50 км 10/1 1000 м
[Sc As op]
+18.5 +8.1 51 +20 +20 1006.0 995.3 +21.5
12 19.05 штиль 0 50 км 8/0
[Ac As]
+12.0 +9.3 84 +11 +11 1007.2 996.2
15 19.05 штиль 0 50 км 10/0
[As trans]
+9.9 +8.8 93 +9 +9 1006.9 995.8
18 19.05 штиль 0 10 км слаб. ливневой дождь 10/10 600 м
[Cb cap]
+9.5 +9.0 97 +9 +9 1005.7 994.7
21 19.05 штиль 0 10 км слаб. ливневой дождь 10/10 600 м
[Cb cap]
+9.7 +9.2 97 +9 +9 1004.2 993.2 +8.9 2
00 20.05 СВ 1 10 км слаб. ливневой дождь 10/10 1000 м
[Cb cap]
+10.9 +10.5 97 +10 +10 1002.1 991.2
03 20.05 СВ 1 10 км слаб. ливневой дождь 10/10 600 м
[Cb cap]
+11.6 +11.1 97 +11 +11 1000.6 989.6
06 20.05 С 1 10 км слаб. дождь 10/0
[As op]
+11.8 +11.4 97 +12 +14 998.8 987.9
09 20.05 В 1 10 км слаб. дождь 10/0 600 м
[As op]
+11.6 +11.1 97 +11 +12 997.9 987.0 +11.9 15
12 20.05 штиль 0 10 км слаб. дождь 10/0 600 м
[As op]
+11.0 +10.5 97 +10 +10 997.6 986.6
15 20.05 С 1 10 км слаб. дождь 10/0
[As op]
+10.8 +10.3 97 +10 +10 996.1 985.2
18 20.05 З 1 10 км слаб. дождь 10/0
[As op]
+10.3 +9.9 97 +10 +10 994.5 983.5
21 20.05 З 1 10 км слаб. дождь 10/0 600 м
[As op]
+8.4 +7.9 97 +7 +8 993.4 982.5 +8.4 11
00 21.05 СЗ 1 10 км слаб. дождь 10/0 600 м
[As op]
+8.2 +7.7 97 +7 +10 993.7 982.7 +8.0
03 21.05 СЗ 2 20 км в посл. час дождь 10/10 1000 м
[Sc]
+8.9 +8.3 96 +7 +7 994.2 983.3
06 21.05 СЗ 2 20 км {дождь} 10/10 1000 м
[Sc]
+9.0 +8.2 95 +7 +7 994.1 983.2
09 21.05 СЗ 2 50 км 10/10 1000 м
[Sc]
+7.8 +7.0 95 +6 +6 994.6 983.6 +9.2 3
12 21.05 СЗ 2 50 км 10/10 1000 м
[Sc]
+6.6 +5.5 93 +4 +4 995.4 984.3
15 21.05 СЗ 1 50 км в посл. час ливневой дождь 10/10 600 м
[Cb cap]
+5.4 +4.8 96 +4 +4 995.9 984.7
18 21.05 СЗ 1 50 км {ливн. осадки} 10/10 1000 м
[Sc diur, vesp]
+4.5 +3.7 95 +3 +3 995.5 984.3
21 21.05 СЗ 1 50 км 10/10 1000 м
[Sc]
+4.3 +2.9 91 +3 +3 996.2 985.0 +4.1 2
00 22.05 З 1 50 км 10/8 1000 м
[Sc Ac As]
+6.6 +3.6 81 +6 +6 996.5 985.4
03 22.05 В 1 50 км 10/10 1000 м
[Sc]
+10.2 +5.2 71 +10 +10 996.1 985.2
06 22.05 СВ 2 50 км 8/8 1000 м
[Cu med, cong]
+14.4 +7.4 63 +14 +16 995.2 984.4
09 22.05 СВ 1 50 км 10/8 600 м
[Cb cap Ci fib]
+15.3 +8.4 63 +16 +16 995.5 984.8 +16.3
12 22.05 СЗ 1 50 км {ливн. осадки} 10/9 600 м
[Cb cap Ci sp]
+10.1 +9.2 94 +10 +10 997.3 986.3
15 22.05 СЗ 1 50 км 9/0
[Ac trans Ci sp]
+9.0 +6.3 83 +8 +8 997.8 986.8
18 22.05 СЗ 1 50 км 10/0
[Ac und]
+8.6 +5.2 79 +8 +8 998.7 987.7
21 22.05 СЗ 1 50 км 9/0
[Ac trans Ci sp]
+9.9 +6.9 82 +9 +11 999.6 988.6 +7.5 0.0
00 23.05 ЮЗ 1 50 км 4/3 1000 м
[Cu med, cong Ci fib]
+14.8 +7.8 63 +15 +24 998.9 988.1

 

Местоположение метеостанции Горин (Хабаровский край, Россия): широта 51.20 долгота 136.80 высота над уровнем моря 92 м.

В архиве по умолчанию представлена погода в Горине за последнюю неделю. Архивные данные за месяц целиком и за предыдущие месяцы, начиная с января 2011 года, Вы можете получить, выбрав интересующий диапазон дат из раскрывающегося списка и нажав кнопку "Ввод!".


*Определитесь, кто Вы:
робот инопланетянин человек

Внимание! Время в таблицах - всемирное. Для получения местного времени необходимо прибавить поправку, которая равна 10 ч.

Смотрите также архив погоды в соседних городах и на ближайших метеорологических станциях:

Погода в Комсомольске-на-Амуре (Хабаровский край, Россия) (76 км)
Погода в Амурске (Хабаровский край, Россия) (95 км)
Погода в Нижнетамбовском (Хабаровский край, Россия) (96 км)
Погода в Хуларине (Хабаровский край, Россия) (128 км)
Погода в Им. Полины Осипенко (Хабаровский край, Россия) (137 км)
Погода в Веселой Горке (Хабаровский край, Россия) (140 км)
Погода в Сегжеме (Хабаровский край, Россия) (147 км)
Погода в Циммермановка (Хабаровский край, Россия) (168 км)
Погода в Троицком (Хабаровский край, Россия) (195 км)
Погода в Куре (Хабаровский край, Россия) (210 км)

Пояснения к столбцам:

Ветер - указаны скорость ветра в м/с - средняя за 10 мин, порывы в срок и между сроками (в фигурных скобках) и направление, откуда дует ветер: С - северный, СВ - северо-восточный, В - восточный, ЮВ - юго-восточный, Ю - южный, ЮЗ - юго-западный, З - западный, СЗ - северо-западный.
Видимость - горизонтальная дальность видимости в метрах или километрах. При видимости от 1 до 10 км при отсутствии осадков обычно наблюдается дымка, при ухудшении видимости до 1 км и менее - туман. В сухую погоду видимость может ухудшаться дымом, пылью или мглою.
Явления - указаны атмосферные явления, наблюдавшиеся в срок или в последний час перед сроком; фигурными скобками обозначены явления, наблюдавшиеся между сроками (за 1-3 часа до срока); квадратными скобками обозначены град или гололедные отложения с указанием их диаметра в мм.
Облачность - указаны через наклонную черту общая и нижняя облачность в баллах и высота нижней границы облаков в метрах; квадратными скобками обозначены формы облаков: Ci - перистые, Cs - перисто-слоистые, Cc - перисто-кучевые, Ac - высококучевые, As - высокослоистые, Sc - слоисто-кучевые, Ns - слоисто-дождевые, Cu - кучевые, Cb - кучево-дождевые. Подробнее классификацию облаков см. в Атласе облаков (PDF).
T - Температура воздуха - температура, измеренная на высоте 2 м над землей.
Td - Температура точки росы - температура, при понижении до которой содержащийся в воздухе водяной пар достигнет насыщения.
f - Относительная влажность воздуха - влажноcть воздуха, измеренная на высоте 2 м над землей.
Te - Эффективная температура - температура, которую ощущает одетый по сезону человек в тени. Характеристика душности погоды. При расчете учитывается влияние влажности воздуха и скорости ветра на теплоощущения человека.
Tes - Эффективная температура на солнце - температура, которую ощущает человек, с поправкой на солнечный нагрев. Характеристика знойности погоды. Зависит от высоты солнца над горизонтом, облачности и скорости ветра. Ночью, в пасмурную погоду, а также при ветре 12 м/с и более поправка равна нулю.
P - Атмосферное давление - приведенное к уровню моря атмосферное давление.
Po - Атмосферное давление - измеренное на уровне метеостанции атмосферное давление.
Tmin - Минимальная температура - минимум температуры воздуха на высоте 2 м над землей.
Tmax - Максимальная температура - максимум температуры воздуха на высоте 2 м над землей.
R - Количество осадков - Количество выпавших осадков за период времени, мм. При наведении курсора мыши на число - период времени, за который выпало указанное количество осадков.
R24 - Количество осадков - Количество выпавших осадков за 24 часа, мм.
S - Снежный покров - Высота снежного покрова, см. При наведении курсора мыши на число - состояние снежного покрова и степень покрытия местности в баллах.